Time,TemperatureF,DewpointF,PressureIn,WindDirection,WindDirectionDegrees,WindSpeedMPH,WindSpeedGustMPH,Humidity,HourlyPrecipIn,Conditions,Clouds,dailyrainin,SolarRadiationWatts/m^2,SoftwareType,DateUTC
2013-11-08 00:00:00,34.1,30.6,29.98,SSW,213,0.0,0.0,87,0.00,,OVC041,0.00,0.00,VWS V14.01,2013-11-08 05:00:00,
2013-11-08 00:01:00,33.7,30.2,29.98,SSW,213,0.0,0.0,87,0.00,,BKN075,0.00,0.00,VWS V14.01,2013-11-08 05:01:00,
2013-11-08 00:06:00,33.7,30.2,29.98,SSW,213,0.0,0.0,87,0.00,,BKN075,0.00,0.00,VWS V14.01,2013-11-08 05:06:00,
2013-11-08 00:11:00,33.5,30.0,29.98,SSW,213,0.0,0.0,87,0.00,,BKN075,0.00,0.00,VWS V14.01,2013-11-08 05:11:00,
2013-11-08 00:16:00,33.5,30.0,29.98,SSW,213,0.0,0.0,87,0.00,,BKN075,0.00,0.00,VWS V14.01,2013-11-08 05:16:00,
2013-11-08 00:21:00,33.5,30.3,29.98,SSW,213,0.0,0.0,88,0.00,,BKN075,0.00,0.00,VWS V14.01,2013-11-08 05:21:00,
2013-11-08 00:26:00,33.5,30.3,29.98,SSW,213,0.0,0.0,88,0.00,,BKN075,0.00,0.00,VWS V14.01,2013-11-08 05:26:00,
2013-11-08 00:30:00,33.8,30.4,29.98,SSW,213,0.0,0.0,87,0.00,,OVC041,0.00,0.00,VWS V14.01,2013-11-08 05:30:00,
2013-11-08 00:31:00,33.5,30.3,29.98,SSW,213,0.0,0.0,88,0.00,,BKN075,0.00,0.00,VWS V14.01,2013-11-08 05:31:00,
2013-11-08 00:36:00,33.5,30.3,29.98,SSW,213,0.0,0.0,88,0.00,,BKN075,0.00,0.00,VWS V14.01,2013-11-08 05:36:00,
2013-11-08 00:41:00,33.5,30.3,29.98,SSW,213,0.0,0.0,88,0.00,,BKN075,0.00,0.00,VWS V14.01,2013-11-08 05:41:00,
2013-11-08 00:46:00,33.5,30.3,29.97,SSW,213,0.0,0.0,88,0.00,,BKN075,0.00,0.00,VWS V14.01,2013-11-08 05:46:00,
2013-11-08 00:51:00,33.5,30.6,29.97,SSW,213,0.0,0.0,89,0.00,,BKN075,0.00,0.00,VWS V14.01,2013-11-08 05:51:00,
2013-11-08 00:56:00,33.5,30.6,29.97,SSW,213,0.0,0.0,89,0.00,,BKN075,0.00,0.00,VWS V14.01,2013-11-08 05:56:00,
2013-11-08 01:00:00,33.5,30.0,29.98,SSW,213,0.0,0.0,87,0.00,,OVC041,0.00,0.00,VWS V14.01,2013-11-08 06:00:00,
2013-11-08 01:01:00,33.5,30.6,29.98,SSW,213,0.0,0.0,89,0.00,,BKN075,0.00,0.00,VWS V14.01,2013-11-08 06:01:00,
2013-11-08 01:06:00,33.5,30.6,29.98,SSW,213,0.0,0.0,89,0.00,,BKN075,0.00,0.00,VWS V14.01,2013-11-08 06:06:00,
2013-11-08 01:11:00,33.7,30.8,29.98,NW,314,0.0,0.0,89,0.00,,BKN075,0.00,0.00,VWS V14.01,2013-11-08 06:11:00,
2013-11-08 01:16:00,33.7,30.8,29.98,NW,314,0.0,0.0,89,0.00,,BKN075,0.00,0.00,VWS V14.01,2013-11-08 06:16:00,
2013-11-08 01:21:00,33.8,31.2,29.98,North,355,0.0,0.0,90,0.00,,BKN075,0.00,0.00,VWS V14.01,2013-11-08 06:21:00,
2013-11-08 01:26:00,34.0,31.4,29.98,WSW,240,0.0,0.0,90,0.00,,BKN075,0.00,0.00,VWS V14.01,2013-11-08 06:26:00,
2013-11-08 01:30:00,33.5,30.3,29.97,SSW,213,0.0,0.0,88,0.00,,OVC041,0.00,0.00,VWS V14.01,2013-11-08 06:30:00,
2013-11-08 01:31:00,34.0,31.4,29.98,North,360,0.0,0.0,90,0.00,,BKN075,0.00,0.00,VWS V14.01,2013-11-08 06:31:00,
2013-11-08 01:36:00,34.1,31.5,29.98,NNE,19,0.0,0.0,90,0.00,,BKN075,0.00,0.00,VWS V14.01,2013-11-08 06:36:00,
2013-11-08 01:41:00,34.3,31.7,29.98,North,10,0.0,0.0,90,0.00,,BKN075,0.00,0.00,VWS V14.01,2013-11-08 06:41:00,
2013-11-08 01:46:00,34.4,31.8,29.99,North,10,0.0,0.0,90,0.00,,BKN075,0.00,0.00,VWS V14.01,2013-11-08 06:46:00,
2013-11-08 01:51:00,34.4,31.8,29.99,North,10,0.0,0.0,90,0.00,,BKN075,0.00,0.00,VWS V14.01,2013-11-08 06:51:00,
2013-11-08 01:56:00,34.6,32.0,29.99,North,10,0.0,0.0,90,0.00,,BKN075,0.00,0.00,VWS V14.01,2013-11-08 06:56:00,
2013-11-08 02:00:00,33.7,30.8,29.98,NW,314,0.0,0.0,89,0.00,,OVC041,0.00,0.00,VWS V14.01,2013-11-08 07:00:00,
2013-11-08 02:01:00,34.7,32.3,29.99,North,10,0.0,0.0,91,0.00,,BKN075,0.00,0.00,VWS V14.01,2013-11-08 07:01:00,
2013-11-08 02:06:00,34.7,32.3,29.99,North,10,0.0,0.0,91,0.00,,BKN075,0.00,0.00,VWS V14.01,2013-11-08 07:06:00,
2013-11-08 02:11:00,34.9,32.5,29.99,North,10,0.0,0.0,91,0.00,,BKN075,0.00,0.00,VWS V14.01,2013-11-08 07:11:00,
2013-11-08 02:16:00,34.9,32.5,29.99,North,10,0.0,0.0,91,0.00,,BKN075,0.00,0.00,VWS V14.01,2013-11-08 07:16:00,
2013-11-08 02:21:00,34.9,32.5,29.99,North,10,0.0,0.0,91,0.00,,BKN075,0.00,0.00,VWS V14.01,2013-11-08 07:21:00,
2013-11-08 02:26:00,34.9,32.5,29.99,North,10,0.0,0.0,91,0.00,,BKN075,0.00,0.00,VWS V14.01,2013-11-08 07:26:00,
2013-11-08 02:30:00,34.4,31.8,29.99,North,10,0.0,0.0,90,0.00,,OVC041,0.00,0.00,VWS V14.01,2013-11-08 07:30:00,
2013-11-08 02:31:00,34.9,32.5,29.99,North,10,0.0,0.0,91,0.00,,BKN075,0.00,0.00,VWS V14.01,2013-11-08 07:31:00,
2013-11-08 02:36:00,34.9,32.5,29.99,North,10,0.0,0.0,91,0.00,,BKN075,0.00,0.00,VWS V14.01,2013-11-08 07:36:00,
2013-11-08 02:41:00,34.9,32.3,29.99,North,10,0.0,0.0,90,0.00,,BKN075,0.00,0.00,VWS V14.01,2013-11-08 07:41:00,
2013-11-08 02:46:00,34.7,32.1,29.99,North,10,0.0,0.0,90,0.00,,BKN075,0.00,0.00,VWS V14.01,2013-11-08 07:46:00,
2013-11-08 02:51:00,34.7,32.1,29.99,North,10,0.0,0.0,90,0.00,,BKN075,0.00,0.00,VWS V14.01,2013-11-08 07:51:00,
2013-11-08 02:56:00,34.6,32.0,29.99,North,10,0.0,0.0,90,0.00,,BKN075,0.00,0.00,VWS V14.01,2013-11-08 07:56:00,
2013-11-08 03:00:00,34.9,32.5,29.99,North,10,0.0,0.0,91,0.00,,OVC041,0.00,0.00,VWS V14.01,2013-11-08 08:00:00,
2013-11-08 03:01:00,34.3,31.7,30.00,North,10,0.0,0.0,90,0.00,,BKN075,0.00,0.00,VWS V14.01,2013-11-08 08:01:00,
2013-11-08 03:06:00,34.1,31.5,30.00,North,10,0.0,0.0,90,0.00,,BKN075,0.00,0.00,VWS V14.01,2013-11-08 08:06:00,
2013-11-08 03:11:00,34.1,31.5,30.00,North,10,0.0,0.0,90,0.00,,BKN075,0.00,0.00,VWS V14.01,2013-11-08 08:11:00,
2013-11-08 03:16:00,33.8,31.2,30.00,North,10,0.0,0.0,90,0.00,,BKN075,0.00,0.00,VWS V14.01,2013-11-08 08:16:00,
2013-11-08 03:21:00,33.7,31.1,30.00,North,10,0.0,0.0,90,0.00,,BKN075,0.00,0.00,VWS V14.01,2013-11-08 08:21:00,
2013-11-08 03:26:00,33.5,30.9,30.00,North,10,0.0,0.0,90,0.00,,BKN075,0.00,0.00,VWS V14.01,2013-11-08 08:26:00,
2013-11-08 03:30:00,34.7,32.1,29.99,North,10,0.0,0.0,90,0.00,,OVC041,0.00,0.00,VWS V14.01,2013-11-08 08:30:00,
2013-11-08 03:31:00,33.2,30.3,30.00,North,10,0.0,0.0,89,0.00,,BKN036,0.00,0.00,VWS V14.01,2013-11-08 08:31:00,
2013-11-08 03:36:00,33.1,30.2,30.00,North,10,0.0,0.0,89,0.00,,BKN036,0.00,0.00,VWS V14.01,2013-11-08 08:36:00,
2013-11-08 03:41:00,32.9,30.0,30.00,North,10,0.0,0.0,89,0.00,,BKN036,0.00,0.00,VWS V14.01,2013-11-08 08:41:00,
2013-11-08 03:46:00,32.9,30.0,30.00,North,10,0.0,0.0,89,0.00,,BKN036,0.00,0.00,VWS V14.01,2013-11-08 08:46:00,
2013-11-08 03:51:00,32.8,29.9,30.00,North,10,0.0,0.0,89,0.00,,BKN036,0.00,0.00,VWS V14.01,2013-11-08 08:51:00,
2013-11-08 03:56:00,32.7,29.8,30.00,North,10,0.0,0.0,89,0.00,,BKN036,0.00,0.00,VWS V14.01,2013-11-08 08:56:00,
2013-11-08 04:00:00,33.8,31.2,30.00,North,10,0.0,0.0,90,0.00,,OVC041,0.00,0.00,VWS V14.01,2013-11-08 09:00:00,
2013-11-08 04:01:00,32.7,29.8,30.00,North,10,0.0,0.0,89,0.00,,FEW040,0.00,0.00,VWS V14.01,2013-11-08 09:01:00,
2013-11-08 04:06:00,32.5,29.6,30.00,North,10,0.0,0.0,89,0.00,,FEW040,0.00,0.00,VWS V14.01,2013-11-08 09:06:00,
2013-11-08 04:11:00,32.4,29.5,30.00,North,10,0.0,0.0,89,0.00,,FEW040,0.00,0.00,VWS V14.01,2013-11-08 09:11:00,
2013-11-08 04:16:00,32.4,29.5,30.01,North,10,0.0,0.0,89,0.00,,FEW040,0.00,0.00,VWS V14.01,2013-11-08 09:16:00,
2013-11-08 04:21:00,32.2,29.3,30.01,North,10,0.0,0.0,89,0.00,,FEW040,0.00,0.00,VWS V14.01,2013-11-08 09:21:00,
2013-11-08 04:26:00,32.1,29.2,30.01,North,10,0.0,0.0,89,0.00,,FEW040,0.00,0.00,VWS V14.01,2013-11-08 09:26:00,
2013-11-08 04:30:00,32.9,30.0,30.00,North,10,0.0,0.0,89,0.00,,OVC041,0.00,0.00,VWS V14.01,2013-11-08 09:30:00,
2013-11-08 04:31:00,31.9,29.0,30.01,North,10,0.0,0.0,89,0.00,,FEW040,0.00,0.00,VWS V14.01,2013-11-08 09:31:00,
2013-11-08 04:36:00,31.9,29.0,30.01,North,10,0.0,0.0,89,0.00,,FEW040,0.00,0.00,VWS V14.01,2013-11-08 09:36:00,
2013-11-08 04:41:00,31.8,28.9,30.01,North,10,0.0,0.0,89,0.00,,FEW040,0.00,0.00,VWS V14.01,2013-11-08 09:41:00,
2013-11-08 04:46:00,31.6,28.7,30.01,North,10,0.0,0.0,89,0.00,,FEW040,0.00,0.00,VWS V14.01,2013-11-08 09:46:00,
2013-11-08 04:51:00,31.6,28.7,30.01,North,10,0.0,0.0,89,0.00,,FEW040,0.00,0.00,VWS V14.01,2013-11-08 09:51:00,
2013-11-08 04:56:00,31.5,28.6,30.01,North,10,0.0,0.0,89,0.00,,FEW040,0.00,0.00,VWS V14.01,2013-11-08 09:56:00,
2013-11-08 05:00:00,32.4,29.5,30.01,North,10,0.0,0.0,89,0.00,,OVC041,0.00,0.00,VWS V14.01,2013-11-08 10:00:00,
2013-11-08 05:01:00,31.5,28.6,30.02,North,10,0.0,0.0,89,0.00,,,0.00,0.00,VWS V14.01,2013-11-08 10:01:00,
2013-11-08 05:06:00,31.3,28.4,30.02,North,10,0.0,0.0,89,0.00,,,0.00,0.00,VWS V14.01,2013-11-08 10:06:00,
2013-11-08 05:11:00,31.2,28.3,30.02,North,10,0.0,0.0,89,0.00,,,0.00,0.00,VWS V14.01,2013-11-08 10:11:00,
2013-11-08 05:16:00,31.2,28.3,30.03,North,10,0.0,0.0,89,0.00,,,0.00,0.00,VWS V14.01,2013-11-08 10:16:00,
2013-11-08 05:21:00,31.2,28.6,30.03,North,10,0.0,0.0,90,0.00,,,0.00,0.00,VWS V14.01,2013-11-08 10:21:00,
2013-11-08 05:26:00,31.0,28.4,30.03,North,10,0.0,0.0,90,0.00,,,0.00,0.00,VWS V14.01,2013-11-08 10:26:00,
2013-11-08 05:30:00,31.6,28.7,30.01,North,10,0.0,0.0,89,0.00,,OVC041,0.00,0.00,VWS V14.01,2013-11-08 10:30:00,
2013-11-08 05:31:00,31.0,28.4,30.04,North,10,0.0,0.0,90,0.00,,,0.00,0.00,VWS V14.01,2013-11-08 10:31:00,
2013-11-08 05:36:00,30.9,28.3,30.04,North,10,0.0,0.0,90,0.00,,,0.00,0.00,VWS V14.01,2013-11-08 10:36:00,
2013-11-08 05:41:00,30.7,28.1,30.04,North,10,0.0,0.0,90,0.00,,,0.00,0.00,VWS V14.01,2013-11-08 10:41:00,
2013-11-08 05:46:00,30.7,28.1,30.04,North,10,0.0,0.0,90,0.00,,,0.00,0.00,VWS V14.01,2013-11-08 10:46:00,
2013-11-08 05:51:00,30.6,28.0,30.04,North,10,0.0,0.0,90,0.00,,,0.00,0.00,VWS V14.01,2013-11-08 10:51:00,
2013-11-08 05:56:00,30.6,28.0,30.04,North,10,0.0,0.0,90,0.00,,,0.00,0.00,VWS V14.01,2013-11-08 10:56:00,
2013-11-08 06:00:00,31.2,28.3,30.03,North,10,0.0,0.0,89,0.00,,OVC041,0.00,0.00,VWS V14.01,2013-11-08 11:00:00,
2013-11-08 06:01:00,30.4,27.8,30.04,North,10,0.0,0.0,90,0.00,,,0.00,0.00,VWS V14.01,2013-11-08 11:01:00,
2013-11-08 06:06:00,30.4,27.8,30.04,North,10,0.0,0.0,90,0.00,,,0.00,0.00,VWS V14.01,2013-11-08 11:06:00,
2013-11-08 06:11:00,30.3,27.7,30.04,North,10,0.0,0.0,90,0.00,,,0.00,0.00,VWS V14.01,2013-11-08 11:11:00,
2013-11-08 06:16:00,30.1,27.5,30.05,North,10,0.0,0.0,90,0.00,,,0.00,0.00,VWS V14.01,2013-11-08 11:16:00,
2013-11-08 06:21:00,30.1,27.5,30.05,North,10,0.0,0.0,90,0.00,,,0.00,0.00,VWS V14.01,2013-11-08 11:21:00,
2013-11-08 06:26:00,30.0,27.4,30.05,North,10,0.0,0.0,90,0.00,,,0.00,0.00,VWS V14.01,2013-11-08 11:26:00,
2013-11-08 06:30:00,30.7,28.1,30.04,North,10,0.0,0.0,90,0.00,,OVC041,0.00,0.00,VWS V14.01,2013-11-08 11:30:00,
2013-11-08 06:31:00,29.8,27.2,30.06,North,10,0.0,0.0,90,0.00,,,0.00,0.00,VWS V14.01,2013-11-08 11:31:00,
2013-11-08 06:36:00,29.8,27.2,30.06,North,10,0.0,0.0,90,0.00,,,0.00,0.00,VWS V14.01,2013-11-08 11:36:00,
2013-11-08 06:41:00,29.8,27.2,30.06,North,10,0.0,0.0,90,0.00,,,0.00,0.00,VWS V14.01,2013-11-08 11:41:00,
2013-11-08 06:46:00,29.7,27.1,30.06,North,10,0.0,0.0,90,0.00,,,0.00,0.00,VWS V14.01,2013-11-08 11:46:00,
2013-11-08 06:51:00,29.7,27.1,30.06,North,10,0.0,0.0,90,0.00,,,0.00,0.00,VWS V14.01,2013-11-08 11:51:00,
2013-11-08 06:56:00,29.5,26.9,30.06,North,10,0.0,0.0,90,0.00,,,0.00,0.00,VWS V14.01,2013-11-08 11:56:00,
2013-11-08 07:00:00,30.1,27.5,30.05,North,10,0.0,0.0,90,0.00,,OVC041,0.00,0.00,VWS V14.01,2013-11-08 12:00:00,
2013-11-08 07:01:00,29.5,26.9,30.07,North,10,0.0,0.0,90,0.00,,,0.00,0.00,VWS V14.01,2013-11-08 12:01:00,
2013-11-08 07:06:00,29.5,26.9,30.07,North,10,0.0,0.0,90,0.00,,,0.00,0.00,VWS V14.01,2013-11-08 12:06:00,
2013-11-08 07:11:00,29.4,26.8,30.07,North,10,0.0,0.0,90,0.00,,,0.00,0.00,VWS V14.01,2013-11-08 12:11:00,
2013-11-08 07:16:00,29.4,26.8,30.08,North,10,0.0,0.0,90,0.00,,,0.00,0.00,VWS V14.01,2013-11-08 12:16:00,
2013-11-08 07:21:00,29.4,26.8,30.08,North,10,0.0,0.0,90,0.00,,,0.00,0.00,VWS V14.01,2013-11-08 12:21:00,
2013-11-08 07:26:00,29.4,26.8,30.08,North,10,0.0,0.0,90,0.00,,,0.00,0.00,VWS V14.01,2013-11-08 12:26:00,
2013-11-08 07:30:00,29.7,27.1,30.06,North,10,0.0,0.0,90,0.00,,OVC041,0.00,0.00,VWS V14.01,2013-11-08 12:30:00,
2013-11-08 07:31:00,29.3,26.7,30.08,North,10,0.0,0.0,90,0.00,,,0.00,0.00,VWS V14.01,2013-11-08 12:31:00,
2013-11-08 07:36:00,29.3,26.7,30.08,North,10,0.0,0.0,90,0.00,,,0.00,5.00,VWS V14.01,2013-11-08 12:36:00,
2013-11-08 07:41:00,29.3,26.7,30.08,North,10,0.0,0.0,90,0.00,,,0.00,7.00,VWS V14.01,2013-11-08 12:41:00,
2013-11-08 07:46:00,29.3,26.7,30.09,North,10,0.0,0.0,90,0.00,,,0.00,9.00,VWS V14.01,2013-11-08 12:46:00,
2013-11-08 07:51:00,29.1,26.5,30.09,North,10,0.0,0.0,90,0.00,,,0.00,9.00,VWS V14.01,2013-11-08 12:51:00,
2013-11-08 07:56:00,29.1,26.5,30.09,North,10,0.0,0.0,90,0.00,,,0.00,11.00,VWS V14.01,2013-11-08 12:56:00,
2013-11-08 08:00:00,29.4,26.8,30.08,North,10,0.0,0.0,90,0.00,,OVC041,0.00,0.00,VWS V14.01,2013-11-08 13:00:00,
2013-11-08 08:01:00,29.1,26.5,30.10,North,10,0.0,0.0,90,0.00,,,0.00,12.00,VWS V14.01,2013-11-08 13:01:00,
2013-11-08 08:06:00,29.1,26.5,30.10,North,10,0.0,0.0,90,0.00,,,0.00,14.00,VWS V14.01,2013-11-08 13:06:00,
2013-11-08 08:11:00,29.1,26.5,30.10,North,10,0.0,0.0,90,0.00,,,0.00,21.00,VWS V14.01,2013-11-08 13:11:00,
2013-11-08 08:16:00,29.1,26.8,30.10,North,10,0.0,0.0,91,0.00,,,0.00,28.00,VWS V14.01,2013-11-08 13:16:00,
2013-11-08 08:21:00,29.1,26.8,30.10,North,10,0.0,0.0,91,0.00,,,0.00,56.00,VWS V14.01,2013-11-08 13:21:00,
2013-11-08 08:26:00,29.3,27.0,30.10,North,10,0.0,0.0,91,0.00,,,0.00,35.00,VWS V14.01,2013-11-08 13:26:00,
2013-11-08 08:30:00,29.3,26.7,30.09,North,10,0.0,0.0,90,0.00,,OVC041,0.00,9.00,VWS V14.01,2013-11-08 13:30:00,
2013-11-08 08:31:00,29.4,27.1,30.10,North,10,0.0,0.0,91,0.00,,,0.00,42.00,VWS V14.01,2013-11-08 13:31:00,
2013-11-08 08:36:00,29.5,27.2,30.10,North,10,0.0,0.0,91,0.00,,,0.00,40.00,VWS V14.01,2013-11-08 13:36:00,
2013-11-08 08:41:00,29.8,27.8,30.10,North,10,0.0,0.0,92,0.00,,,0.00,30.00,VWS V14.01,2013-11-08 13:41:00,
2013-11-08 08:46:00,30.0,28.0,30.11,North,10,0.0,0.0,92,0.00,,,0.00,33.00,VWS V14.01,2013-11-08 13:46:00,
2013-11-08 08:51:00,30.3,28.3,30.11,North,10,0.0,0.0,92,0.00,,,0.00,28.00,VWS V14.01,2013-11-08 13:51:00,
2013-11-08 08:56:00,30.4,28.4,30.11,North,10,0.0,0.0,92,0.00,,,0.00,30.00,VWS V14.01,2013-11-08 13:56:00,
2013-11-08 09:00:00,29.1,26.8,30.10,North,10,0.0,0.0,91,0.00,,OVC041,0.00,28.00,VWS V14.01,2013-11-08 14:00:00,
2013-11-08 09:01:00,30.6,28.6,30.11,North,10,0.0,0.0,92,0.00,,,0.00,30.00,VWS V14.01,2013-11-08 14:01:00,
2013-11-08 09:06:00,30.9,28.9,30.11,North,10,0.0,0.0,92,0.00,,,0.00,28.00,VWS V14.01,2013-11-08 14:06:00,
2013-11-08 09:11:00,31.2,29.4,30.11,North,10,0.0,0.0,93,0.00,,,0.00,30.00,VWS V14.01,2013-11-08 14:11:00,
2013-11-08 09:16:00,31.5,29.7,30.11,North,10,0.0,0.0,93,0.00,,,0.00,56.00,VWS V14.01,2013-11-08 14:16:00,
2013-11-08 09:21:00,33.1,31.3,30.11,North,10,0.0,0.0,93,0.00,,,0.00,155.00,VWS V14.01,2013-11-08 14:21:00,
2013-11-08 09:26:00,34.4,31.5,30.11,North,10,0.0,0.0,89,0.00,,,0.00,171.00,VWS V14.01,2013-11-08 14:26:00,
2013-11-08 09:30:00,30.0,28.0,30.11,North,10,0.0,0.0,92,0.00,,OVC041,0.00,33.00,VWS V14.01,2013-11-08 14:30:00,
2013-11-08 09:31:00,35.3,31.0,30.12,North,10,0.0,0.0,84,0.00,,,0.00,109.00,VWS V14.01,2013-11-08 14:31:00,
2013-11-08 09:36:00,35.8,30.9,30.12,North,10,0.0,0.0,82,0.00,,,0.00,84.00,VWS V14.01,2013-11-08 14:36:00,
2013-11-08 09:41:00,35.9,31.0,30.12,North,10,0.0,0.0,82,0.00,,,0.00,37.00,VWS V14.01,2013-11-08 14:41:00,
2013-11-08 09:46:00,35.9,31.0,30.12,NE,56,0.0,0.0,82,0.00,,,0.00,42.00,VWS V14.01,2013-11-08 14:46:00,
2013-11-08 09:51:00,36.0,30.8,30.12,NE,56,0.0,0.0,81,0.00,,,0.00,62.00,VWS V14.01,2013-11-08 14:51:00,
2013-11-08 09:56:00,36.2,30.9,30.12,SW,222,0.0,0.0,81,0.00,,,0.00,39.00,VWS V14.01,2013-11-08 14:56:00,
2013-11-08 10:00:00,31.5,29.7,30.11,North,10,0.0,0.0,93,0.00,,OVC041,0.00,95.00,VWS V14.01,2013-11-08 15:00:00,
2013-11-08 10:01:00,36.3,30.7,30.11,SSE,165,1.0,0.0,80,0.00,,,0.00,33.00,VWS V14.01,2013-11-08 15:01:00,
2013-11-08 10:05:00,36.6,30.4,30.11,SW,214,0.0,0.0,78,0.00,,,0.00,60.00,VWS V14.01,2013-11-08 15:05:00,
2013-11-08 10:10:00,36.8,30.3,30.11,South,190,0.0,0.0,77,0.00,,,0.00,35.00,VWS V14.01,2013-11-08 15:10:00,
2013-11-08 10:15:00,37.0,30.1,30.11,WNW,298,0.0,0.0,76,0.00,,,0.00,35.00,VWS V14.01,2013-11-08 15:15:00,
2013-11-08 10:20:00,37.2,30.0,30.11,ENE,57,0.0,0.0,75,0.01,,,0.01,47.00,VWS V14.01,2013-11-08 15:20:00,
2013-11-08 10:25:00,37.5,30.0,30.11,NNE,22,0.0,0.0,74,0.01,,,0.01,40.00,VWS V14.01,2013-11-08 15:25:00,
2013-11-08 10:30:00,37.6,29.7,30.11,North,11,0.0,0.0,73,0.01,,,0.01,39.00,VWS V14.01,2013-11-08 15:30:00,
2013-11-08 10:35:00,37.8,29.6,30.11,South,188,0.0,0.0,72,0.01,,,0.01,49.00,VWS V14.01,2013-11-08 15:35:00,
2013-11-08 10:40:00,38.0,29.5,30.11,SW,225,0.0,0.0,71,0.01,,,0.01,70.00,VWS V14.01,2013-11-08 15:40:00,
2013-11-08 10:45:00,38.2,29.6,30.12,WSW,240,0.0,0.0,71,0.01,,,0.01,111.00,VWS V14.01,2013-11-08 15:45:00,
2013-11-08 10:50:00,38.3,29.4,30.12,SW,229,0.0,0.0,70,0.01,,CLR,0.01,53.00,VWS V14.01,2013-11-08 15:50:00,
2013-11-08 10:55:00,38.5,29.2,30.12,WSW,242,0.0,0.0,69,0.01,,CLR,0.01,39.00,VWS V14.01,2013-11-08 15:55:00,
2013-11-08 11:00:00,38.8,29.5,30.12,NW,313,0.0,0.0,69,0.01,,CLR,0.01,39.00,VWS V14.01,2013-11-08 16:00:00,
2013-11-08 11:05:00,38.9,29.6,30.12,NW,313,0.0,0.0,69,0.01,,CLR,0.01,39.00,VWS V14.01,2013-11-08 16:05:00,
2013-11-08 11:10:00,39.1,29.5,30.12,NNE,26,0.0,0.0,68,0.01,,CLR,0.01,40.00,VWS V14.01,2013-11-08 16:10:00,
2013-11-08 11:15:00,39.2,28.8,30.11,NNE,28,0.0,0.0,66,0.01,,CLR,0.01,35.00,VWS V14.01,2013-11-08 16:15:00,
2013-11-08 11:20:00,39.3,28.5,30.11,North,9,0.0,0.0,65,0.01,,CLR,0.01,35.00,VWS V14.01,2013-11-08 16:20:00,
2013-11-08 11:25:00,39.5,28.7,30.11,North,9,0.0,0.0,65,0.01,,CLR,0.01,42.00,VWS V14.01,2013-11-08 16:25:00,
2013-11-08 11:30:00,39.6,28.1,30.10,NNW,333,1.0,0.0,63,0.01,,CLR,0.01,35.00,VWS V14.01,2013-11-08 16:30:00,
2013-11-08 11:35:00,39.9,28.3,30.10,NNW,334,0.0,0.0,63,0.01,,CLR,0.01,35.00,VWS V14.01,2013-11-08 16:35:00,
2013-11-08 11:40:00,39.9,27.6,30.10,SSW,198,0.0,0.0,61,0.01,,CLR,0.01,33.00,VWS V14.01,2013-11-08 16:40:00,
2013-11-08 11:45:00,40.2,27.8,30.10,WNW,302,0.0,0.0,61,0.01,,CLR,0.01,37.00,VWS V14.01,2013-11-08 16:45:00,
2013-11-08 11:50:00,40.3,27.5,30.10,North,349,1.0,0.0,60,0.00,,CLR,0.01,39.00,VWS V14.01,2013-11-08 16:50:00,
2013-11-08 11:55:00,40.5,27.7,30.10,SW,217,0.0,0.0,60,0.00,,CLR,0.01,49.00,VWS V14.01,2013-11-08 16:55:00,
2013-11-08 12:00:00,40.6,27.4,30.10,SW,217,0.0,0.0,59,0.00,,CLR,0.01,51.00,VWS V14.01,2013-11-08 17:00:00,
2013-11-08 12:05:00,40.8,28.0,30.10,NW,324,0.0,0.0,60,0.00,,CLR,0.01,63.00,VWS V14.01,2013-11-08 17:05:00,
2013-11-08 12:10:00,40.9,27.7,30.10,NW,304,1.0,0.0,59,0.00,,CLR,0.01,70.00,VWS V14.01,2013-11-08 17:10:00,
2013-11-08 12:15:00,41.2,27.6,30.09,NNW,336,0.0,0.0,58,0.00,,CLR,0.01,65.00,VWS V14.01,2013-11-08 17:15:00,
2013-11-08 12:20:00,41.3,27.6,30.09,NNW,338,0.0,0.0,58,0.00,,CLR,0.01,90.00,VWS V14.01,2013-11-08 17:20:00,
2013-11-08 12:25:00,41.6,27.9,30.09,NNW,338,0.0,0.0,58,0.00,,CLR,0.01,63.00,VWS V14.01,2013-11-08 17:25:00,
2013-11-08 12:30:00,41.8,28.5,30.07,NNW,338,0.0,0.0,59,0.00,,CLR,0.01,70.00,VWS V14.01,2013-11-08 17:30:00,
2013-11-08 12:35:00,41.9,27.8,30.07,ENE,57,0.0,0.0,57,0.00,,CLR,0.01,65.00,VWS V14.01,2013-11-08 17:35:00,
2013-11-08 12:40:00,42.1,28.0,30.07,ENE,57,0.0,0.0,57,0.00,,CLR,0.01,54.00,VWS V14.01,2013-11-08 17:40:00,
2013-11-08 12:45:00,42.2,28.1,30.07,ENE,57,0.0,0.0,57,0.00,,CLR,0.01,63.00,VWS V14.01,2013-11-08 17:45:00,
2013-11-08 12:50:00,42.2,27.6,30.07,NE,54,0.0,0.0,56,0.00,,CLR,0.01,81.00,VWS V14.01,2013-11-08 17:50:00,
2013-11-08 12:55:00,42.3,28.2,30.07,SW,229,0.0,0.0,57,0.00,,CLR,0.01,83.00,VWS V14.01,2013-11-08 17:55:00,
2013-11-08 13:00:00,42.5,28.4,30.07,SW,229,0.0,0.0,57,0.00,,CLR,0.01,102.00,VWS V14.01,2013-11-08 18:00:00,
2013-11-08 13:05:00,42.5,27.9,30.07,WSW,240,0.0,0.0,56,0.00,,CLR,0.01,79.00,VWS V14.01,2013-11-08 18:05:00,
2013-11-08 13:10:00,42.6,28.0,30.07,WSW,240,0.0,0.0,56,0.00,,CLR,0.01,90.00,VWS V14.01,2013-11-08 18:10:00,
2013-11-08 13:15:00,42.8,28.6,30.07,WSW,240,0.0,0.0,57,0.00,,CLR,0.01,155.00,VWS V14.01,2013-11-08 18:15:00,
2013-11-08 13:20:00,42.8,28.6,30.07,SW,214,0.0,0.0,57,0.00,,CLR,0.01,137.00,VWS V14.01,2013-11-08 18:20:00,
2013-11-08 13:25:00,42.9,27.9,30.07,SW,227,0.0,0.0,55,0.00,,CLR,0.01,93.00,VWS V14.01,2013-11-08 18:25:00,
2013-11-08 13:30:00,43.3,27.3,30.05,North,5,0.0,0.0,53,0.00,,CLR,0.01,88.00,VWS V14.01,2013-11-08 18:30:00,
2013-11-08 13:35:00,43.9,29.2,30.05,ENE,63,0.0,0.0,56,0.00,,CLR,0.01,83.00,VWS V14.01,2013-11-08 18:35:00,
2013-11-08 13:40:00,44.1,29.9,30.05,ENE,63,0.0,0.0,57,0.00,,CLR,0.01,260.00,VWS V14.01,2013-11-08 18:40:00,
2013-11-08 13:45:00,44.2,30.4,30.05,NNW,337,0.0,0.0,58,0.00,,CLR,0.01,83.00,VWS V14.01,2013-11-08 18:45:00,
2013-11-08 13:50:00,44.2,30.0,30.05,East,96,0.0,0.0,57,0.00,,CLR,0.01,167.00,VWS V14.01,2013-11-08 18:50:00,
2013-11-08 13:55:00,44.2,30.4,30.05,East,98,0.0,0.0,58,0.00,,CLR,0.01,431.00,VWS V14.01,2013-11-08 18:55:00,
2013-11-08 14:00:00,44.3,30.0,30.05,ESE,116,0.0,0.0,57,0.00,,CLR,0.01,413.00,VWS V14.01,2013-11-08 19:00:00,
2013-11-08 14:05:00,44.1,29.9,30.04,West,259,0.0,0.0,57,0.00,,CLR,0.01,269.00,VWS V14.01,2013-11-08 19:05:00,
2013-11-08 14:10:00,43.9,30.1,30.04,South,175,0.0,0.0,58,0.00,,CLR,0.01,218.00,VWS V14.01,2013-11-08 19:10:00,
2013-11-08 14:15:00,43.9,29.7,30.04,SSW,207,1.0,0.0,57,0.00,,CLR,0.01,77.00,VWS V14.01,2013-11-08 19:15:00,
2013-11-08 14:20:00,43.8,29.6,30.04,SSW,209,0.0,0.0,57,0.00,,CLR,0.01,107.00,VWS V14.01,2013-11-08 19:20:00,
2013-11-08 14:25:00,43.8,30.0,30.04,SSE,165,1.0,0.0,58,0.00,,CLR,0.01,49.00,VWS V14.01,2013-11-08 19:25:00,
2013-11-08 14:30:00,43.8,30.0,30.04,SSE,161,1.0,0.0,58,0.00,,CLR,0.01,44.00,VWS V14.01,2013-11-08 19:30:00,
2013-11-08 14:35:00,43.9,29.7,30.04,NW,311,0.0,0.0,57,0.00,,CLR,0.01,51.00,VWS V14.01,2013-11-08 19:35:00,
2013-11-08 14:40:00,43.9,29.7,30.04,South,174,0.0,0.0,57,0.00,,CLR,0.01,37.00,VWS V14.01,2013-11-08 19:40:00,
2013-11-08 14:45:00,43.9,29.7,30.04,South,171,0.0,0.0,57,0.00,,CLR,0.01,54.00,VWS V14.01,2013-11-08 19:45:00,
2013-11-08 14:50:00,43.9,29.7,30.03,South,186,0.0,0.0,57,0.00,,CLR,0.01,54.00,VWS V14.01,2013-11-08 19:50:00,
2013-11-08 14:55:00,43.9,30.1,30.03,South,188,0.0,0.0,58,0.00,,CLR,0.01,67.00,VWS V14.01,2013-11-08 19:55:00,
2013-11-08 15:00:00,43.9,30.1,30.03,South,188,0.0,0.0,58,0.00,,CLR,0.01,93.00,VWS V14.01,2013-11-08 20:00:00,
2013-11-08 15:05:00,43.9,30.1,30.03,NW,309,0.0,0.0,58,0.00,,CLR,0.01,97.00,VWS V14.01,2013-11-08 20:05:00,
2013-11-08 15:10:00,44.1,30.3,30.03,NNW,333,0.0,0.0,58,0.00,,CLR,0.01,93.00,VWS V14.01,2013-11-08 20:10:00,
2013-11-08 15:15:00,44.1,30.3,30.03,NW,326,2.0,0.0,58,0.00,,CLR,0.01,83.00,VWS V14.01,2013-11-08 20:15:00,
2013-11-08 15:20:00,44.1,29.9,30.02,NW,322,0.0,0.0,57,0.00,,CLR,0.01,67.00,VWS V14.01,2013-11-08 20:20:00,
2013-11-08 15:25:00,44.2,30.0,30.02,NNW,338,0.0,0.0,57,0.00,,CLR,0.01,67.00,VWS V14.01,2013-11-08 20:25:00,
2013-11-08 15:30:00,44.2,30.0,30.02,SW,236,0.0,0.0,57,0.00,,CLR,0.01,60.00,VWS V14.01,2013-11-08 20:30:00,
2013-11-08 15:35:00,44.2,29.5,30.02,NW,304,0.0,0.0,56,0.00,,CLR,0.01,58.00,VWS V14.01,2013-11-08 20:35:00,
2013-11-08 15:40:00,44.3,30.0,30.02,WNW,303,0.0,0.0,57,0.00,,CLR,0.01,49.00,VWS V14.01,2013-11-08 20:40:00,
2013-11-08 15:45:00,44.3,30.0,30.02,WNW,303,0.0,0.0,57,0.00,,CLR,0.01,58.00,VWS V14.01,2013-11-08 20:45:00,
2013-11-08 15:50:00,44.2,30.0,30.01,WNW,303,0.0,0.0,57,0.00,,CLR,0.01,67.00,VWS V14.01,2013-11-08 20:50:00,
2013-11-08 15:55:00,44.2,30.4,30.01,WNW,303,0.0,0.0,58,0.00,,CLR,0.01,67.00,VWS V14.01,2013-11-08 20:55:00,
2013-11-08 16:00:00,44.2,30.4,30.01,NNW,340,0.0,0.0,58,0.00,,CLR,0.01,53.00,VWS V14.01,2013-11-08 21:00:00,
2013-11-08 16:05:00,44.2,30.4,30.01,NNW,340,0.0,0.0,58,0.00,,CLR,0.01,33.00,VWS V14.01,2013-11-08 21:05:00,
2013-11-08 16:10:00,44.2,30.4,30.01,NNW,340,0.0,0.0,58,0.00,,CLR,0.01,37.00,VWS V14.01,2013-11-08 21:10:00,
2013-11-08 16:15:00,44.2,30.4,30.01,NNW,340,0.0,0.0,58,0.00,,CLR,0.01,49.00,VWS V14.01,2013-11-08 21:15:00,
2013-11-08 16:20:00,44.2,30.8,30.01,NNW,340,0.0,0.0,59,0.00,,CLR,0.01,63.00,VWS V14.01,2013-11-08 21:20:00,
2013-11-08 16:25:00,44.1,31.1,30.01,NNW,340,0.0,0.0,60,0.00,,CLR,0.01,69.00,VWS V14.01,2013-11-08 21:25:00,
2013-11-08 16:30:00,44.1,31.1,30.01,NNW,340,0.0,0.0,60,0.00,,CLR,0.01,51.00,VWS V14.01,2013-11-08 21:30:00,
2013-11-08 16:35:00,44.1,31.1,30.02,NNW,340,0.0,0.0,60,0.00,,CLR,0.01,39.00,VWS V14.01,2013-11-08 21:35:00,
2013-11-08 16:40:00,44.1,30.7,30.02,NNW,338,0.0,0.0,59,0.00,,CLR,0.01,28.00,VWS V14.01,2013-11-08 21:40:00,
2013-11-08 16:45:00,43.9,30.5,30.02,NNW,338,0.0,0.0,59,0.00,,CLR,0.01,30.00,VWS V14.01,2013-11-08 21:45:00,
2013-11-08 16:50:00,43.9,30.1,30.01,NNW,338,0.0,0.0,58,0.00,,CLR,0.01,40.00,VWS V14.01,2013-11-08 21:50:00,
2013-11-08 16:55:00,43.9,30.5,30.01,NNW,338,0.0,0.0,59,0.00,,CLR,0.01,39.00,VWS V14.01,2013-11-08 21:55:00,
2013-11-08 17:00:00,43.8,30.4,30.01,NNW,338,0.0,0.0,59,0.00,,CLR,0.01,33.00,VWS V14.01,2013-11-08 22:00:00,
2013-11-08 17:05:00,43.8,30.8,30.01,NNW,338,0.0,0.0,60,0.00,,CLR,0.01,25.00,VWS V14.01,2013-11-08 22:05:00,
2013-11-08 17:10:00,43.6,30.6,30.01,NNW,338,0.0,0.0,60,0.00,,CLR,0.01,16.00,VWS V14.01,2013-11-08 22:10:00,
2013-11-08 17:15:00,43.6,30.6,30.01,NNW,338,0.0,0.0,60,0.00,,CLR,0.01,14.00,VWS V14.01,2013-11-08 22:15:00,
2013-11-08 17:20:00,43.5,30.5,30.00,NNW,338,0.0,0.0,60,0.00,,CLR,0.01,7.00,VWS V14.01,2013-11-08 22:20:00,
2013-11-08 17:25:00,43.3,30.4,30.00,NNW,338,0.0,0.0,60,0.00,,CLR,0.01,5.00,VWS V14.01,2013-11-08 22:25:00,
2013-11-08 17:30:00,43.3,30.4,30.00,NNW,338,0.0,0.0,60,0.00,,CLR,0.01,0.00,VWS V14.01,2013-11-08 22:30:00,
2013-11-08 17:35:00,43.2,30.3,30.00,NNW,338,0.0,0.0,60,0.00,,CLR,0.01,0.00,VWS V14.01,2013-11-08 22:35:00,
2013-11-08 17:40:00,43.1,30.2,30.00,NNW,338,0.0,0.0,60,0.00,,CLR,0.01,0.00,VWS V14.01,2013-11-08 22:40:00,
2013-11-08 17:45:00,42.9,30.0,30.00,NNW,338,0.0,0.0,60,0.00,,CLR,0.01,0.00,VWS V14.01,2013-11-08 22:45:00,
2013-11-08 17:50:00,42.8,29.9,30.01,NNW,338,0.0,0.0,60,0.00,,CLR,0.01,0.00,VWS V14.01,2013-11-08 22:50:00,
2013-11-08 17:55:00,42.5,29.6,30.01,NNW,338,0.0,0.0,60,0.00,,CLR,0.01,0.00,VWS V14.01,2013-11-08 22:55:00,
2013-11-08 18:00:00,42.3,29.8,30.01,NNW,338,0.0,0.0,61,0.00,,CLR,0.01,0.00,VWS V14.01,2013-11-08 23:00:00,
2013-11-08 18:05:00,42.2,29.7,30.00,NNW,338,0.0,0.0,61,0.00,,CLR,0.01,0.00,VWS V14.01,2013-11-08 23:05:00,
2013-11-08 18:10:00,42.1,29.6,30.00,NNW,338,0.0,0.0,61,0.00,,CLR,0.01,0.00,VWS V14.01,2013-11-08 23:10:00,
2013-11-08 18:15:00,41.8,30.1,30.00,NNW,338,0.0,0.0,63,0.00,,CLR,0.01,0.00,VWS V14.01,2013-11-08 23:15:00,
2013-11-08 18:20:00,41.6,30.3,29.99,NNW,338,0.0,0.0,64,0.00,,CLR,0.01,0.00,VWS V14.01,2013-11-08 23:20:00,
2013-11-08 18:25:00,41.5,29.9,29.99,NNW,338,0.0,0.0,63,0.00,,CLR,0.01,0.00,VWS V14.01,2013-11-08 23:25:00,
2013-11-08 18:30:00,41.3,30.1,29.99,NNW,338,0.0,0.0,64,0.00,,CLR,0.01,0.00,VWS V14.01,2013-11-08 23:30:00,
2013-11-08 18:35:00,41.2,30.0,29.99,NNW,338,0.0,0.0,64,0.00,,CLR,0.01,0.00,VWS V14.01,2013-11-08 23:35:00,
2013-11-08 18:40:00,41.1,30.2,29.99,NNW,338,0.0,0.0,65,0.00,,CLR,0.01,0.00,VWS V14.01,2013-11-08 23:40:00,
2013-11-08 18:45:00,40.9,30.1,29.99,NNW,338,0.0,0.0,65,0.00,,CLR,0.01,0.00,VWS V14.01,2013-11-08 23:45:00,
2013-11-08 18:50:00,40.8,30.3,29.99,NNW,338,0.0,0.0,66,0.00,,CLR,0.01,0.00,VWS V14.01,2013-11-08 23:50:00,
2013-11-08 18:55:00,40.8,30.7,29.99,NNW,338,0.0,0.0,67,0.00,,CLR,0.01,0.00,VWS V14.01,2013-11-08 23:55:00,
2013-11-08 19:00:00,40.6,30.9,29.99,NNW,338,0.0,0.0,68,0.00,,CLR,0.01,0.00,VWS V14.01,2013-11-09 00:00:00,
2013-11-08 19:05:00,40.8,31.1,29.98,NNW,338,0.0,0.0,68,0.00,,BKN100,0.01,0.00,VWS V14.01,2013-11-09 00:05:00,
2013-11-08 19:10:00,40.8,30.7,29.98,NNW,338,0.0,0.0,67,0.00,,BKN100,0.01,0.00,VWS V14.01,2013-11-09 00:10:00,
2013-11-08 19:15:00,40.9,31.2,29.98,NNW,338,0.0,0.0,68,0.00,,BKN100,0.01,0.00,VWS V14.01,2013-11-09 00:15:00,
2013-11-08 19:20:00,41.1,31.4,29.98,NNW,338,0.0,0.0,68,0.00,,BKN100,0.01,0.00,VWS V14.01,2013-11-09 00:20:00,
2013-11-08 19:25:00,41.1,31.4,29.98,NNW,338,0.0,0.0,68,0.00,,BKN100,0.01,0.00,VWS V14.01,2013-11-09 00:25:00,
2013-11-08 19:30:00,41.2,31.5,29.98,NNW,338,0.0,0.0,68,0.00,,BKN100,0.01,0.00,VWS V14.01,2013-11-09 00:30:00,
2013-11-08 19:35:00,41.2,31.5,29.99,NNW,338,0.0,0.0,68,0.00,,BKN100,0.01,0.00,VWS V14.01,2013-11-09 00:35:00,
2013-11-08 19:40:00,41.3,31.5,29.99,NNW,338,0.0,0.0,68,0.00,,BKN100,0.01,0.00,VWS V14.01,2013-11-09 00:40:00,
2013-11-08 19:45:00,41.3,31.5,29.99,NNW,338,0.0,0.0,68,0.00,,BKN100,0.01,0.00,VWS V14.01,2013-11-09 00:45:00,
2013-11-08 19:50:00,41.3,31.2,29.98,NNW,338,0.0,0.0,67,0.00,,BKN100,0.01,0.00,VWS V14.01,2013-11-09 00:50:00,
2013-11-08 19:55:00,41.5,31.7,29.98,NNW,338,0.0,0.0,68,0.00,,BKN100,0.01,0.00,VWS V14.01,2013-11-09 00:55:00,
2013-11-08 20:00:00,41.5,31.7,29.98,NNW,338,0.0,0.0,68,0.00,,BKN100,0.01,0.00,VWS V14.01,2013-11-09 01:00:00,
2013-11-08 20:05:00,41.5,31.4,29.96,ESE,115,0.0,0.0,67,0.00,,CLR,0.01,0.00,VWS V14.01,2013-11-09 01:05:00,
2013-11-08 20:10:00,41.5,31.7,29.96,ESE,115,0.0,0.0,68,0.00,,CLR,0.01,0.00,VWS V14.01,2013-11-09 01:10:00,
2013-11-08 20:15:00,41.5,31.7,29.96,ESE,115,0.0,0.0,68,0.00,,CLR,0.01,0.00,VWS V14.01,2013-11-09 01:15:00,
2013-11-08 20:20:00,41.5,31.7,29.96,ESE,115,0.0,0.0,68,0.00,,CLR,0.01,0.00,VWS V14.01,2013-11-09 01:20:00,
2013-11-08 20:25:00,41.5,31.7,29.96,ESE,115,0.0,0.0,68,0.00,,CLR,0.01,0.00,VWS V14.01,2013-11-09 01:25:00,
2013-11-08 20:30:00,41.5,31.7,29.96,ESE,115,0.0,0.0,68,0.00,,CLR,0.01,0.00,VWS V14.01,2013-11-09 01:30:00,
2013-11-08 20:35:00,41.5,31.7,29.95,ESE,115,0.0,0.0,68,0.00,,CLR,0.01,0.00,VWS V14.01,2013-11-09 01:35:00,
2013-11-08 20:40:00,41.5,32.1,29.95,ESE,115,0.0,0.0,69,0.00,,CLR,0.01,0.00,VWS V14.01,2013-11-09 01:40:00,
2013-11-08 20:45:00,41.5,32.1,29.95,ESE,115,0.0,0.0,69,0.00,,CLR,0.01,0.00,VWS V14.01,2013-11-09 01:45:00,
2013-11-08 20:50:00,41.5,32.1,29.95,ESE,115,0.0,0.0,69,0.00,,CLR,0.01,0.00,VWS V14.01,2013-11-09 01:50:00,
2013-11-08 20:55:00,41.3,31.9,29.95,ESE,115,0.0,0.0,69,0.00,,CLR,0.01,0.00,VWS V14.01,2013-11-09 01:55:00,
2013-11-08 21:00:00,41.3,31.9,29.95,ESE,115,0.0,0.0,69,0.00,,CLR,0.01,0.00,VWS V14.01,2013-11-09 02:00:00,
2013-11-08 21:05:00,41.2,32.2,29.94,ESE,115,0.0,0.0,70,0.00,,CLR,0.01,0.00,VWS V14.01,2013-11-09 02:05:00,
2013-11-08 21:10:00,41.2,32.2,29.94,ESE,115,0.0,0.0,70,0.00,,CLR,0.01,0.00,VWS V14.01,2013-11-09 02:10:00,
2013-11-08 21:15:00,41.1,32.1,29.94,ESE,115,0.0,0.0,70,0.00,,CLR,0.01,0.00,VWS V14.01,2013-11-09 02:15:00,
2013-11-08 21:20:00,41.1,32.1,29.95,ESE,115,0.0,0.0,70,0.00,,CLR,0.01,0.00,VWS V14.01,2013-11-09 02:20:00,
2013-11-08 21:25:00,41.1,32.1,29.95,ESE,115,0.0,0.0,70,0.00,,CLR,0.01,0.00,VWS V14.01,2013-11-09 02:25:00,
2013-11-08 21:30:00,40.9,31.9,29.95,ESE,115,0.0,0.0,70,0.00,,CLR,0.01,0.00,VWS V14.01,2013-11-09 02:30:00,
2013-11-08 21:35:00,40.8,31.8,29.95,ESE,115,0.0,0.0,70,0.00,,CLR,0.01,0.00,VWS V14.01,2013-11-09 02:35:00,
2013-11-08 21:40:00,40.8,31.8,29.95,ESE,115,0.0,0.0,70,0.00,,CLR,0.01,0.00,VWS V14.01,2013-11-09 02:40:00,
2013-11-08 21:45:00,40.6,32.0,29.95,ESE,115,0.0,0.0,71,0.00,,CLR,0.01,0.00,VWS V14.01,2013-11-09 02:45:00,
2013-11-08 21:50:00,40.6,32.0,29.93,ESE,115,0.0,0.0,71,0.00,,CLR,0.01,0.00,VWS V14.01,2013-11-09 02:50:00,
2013-11-08 21:55:00,40.6,32.0,29.93,ESE,115,0.0,0.0,71,0.00,,CLR,0.01,0.00,VWS V14.01,2013-11-09 02:55:00,
2013-11-08 22:00:00,40.5,31.9,29.93,ESE,115,0.0,0.0,71,0.00,,CLR,0.01,0.00,VWS V14.01,2013-11-09 03:00:00,
2013-11-08 22:05:00,40.5,31.9,29.93,ESE,115,0.0,0.0,71,0.00,,CLR,0.01,0.00,VWS V14.01,2013-11-09 03:05:00,
2013-11-08 22:10:00,40.5,31.9,29.93,ESE,115,0.0,0.0,71,0.00,,CLR,0.01,0.00,VWS V14.01,2013-11-09 03:10:00,
2013-11-08 22:15:00,40.6,32.0,29.93,ESE,117,0.0,0.0,71,0.00,,CLR,0.01,0.00,VWS V14.01,2013-11-09 03:15:00,
2013-11-08 22:19:00,40.6,32.0,29.93,ESE,117,0.0,0.0,71,0.00,,CLR,0.01,0.00,VWS V14.01,2013-11-09 03:19:00,
2013-11-08 22:24:00,40.6,31.6,29.93,ESE,117,0.0,0.0,70,0.00,,CLR,0.01,0.00,VWS V14.01,2013-11-09 03:24:00,
2013-11-08 22:29:00,40.6,31.6,29.93,ESE,117,0.0,0.0,70,0.00,,CLR,0.01,0.00,VWS V14.01,2013-11-09 03:29:00,
2013-11-08 22:30:00,40.6,32.0,29.93,ESE,115,0.0,0.0,71,0.00,,OVC041,0.01,0.00,VWS V14.01,2013-11-09 03:30:00,
2013-11-08 22:34:00,40.6,31.6,29.92,SE,134,0.0,0.0,70,0.00,,CLR,0.01,0.00,VWS V14.01,2013-11-09 03:34:00,
2013-11-08 22:39:00,40.8,31.4,29.92,SE,134,0.0,0.0,69,0.00,,CLR,0.01,0.00,VWS V14.01,2013-11-09 03:39:00,
2013-11-08 22:44:00,40.8,31.4,29.92,SE,134,0.0,0.0,69,0.00,,CLR,0.01,0.00,VWS V14.01,2013-11-09 03:44:00,
2013-11-08 22:49:00,40.8,31.4,29.92,SE,134,0.0,0.0,69,0.00,,CLR,0.01,0.00,VWS V14.01,2013-11-09 03:49:00,
2013-11-08 22:54:00,40.8,31.1,29.92,SE,134,0.0,0.0,68,0.00,,CLR,0.01,0.00,VWS V14.01,2013-11-09 03:54:00,
2013-11-08 22:59:00,40.9,31.2,29.92,SE,134,0.0,0.0,68,0.00,,CLR,0.01,0.00,VWS V14.01,2013-11-09 03:59:00,
2013-11-08 23:00:00,40.6,32.0,29.93,ESE,117,0.0,0.0,71,0.00,,OVC041,0.01,0.00,VWS V14.01,2013-11-09 04:00:00,
2013-11-08 23:04:00,40.9,31.2,29.91,SE,134,0.0,0.0,68,0.00,,BKN120,0.01,0.00,VWS V14.01,2013-11-09 04:04:00,
2013-11-08 23:09:00,40.9,31.2,29.91,SE,135,0.0,0.0,68,0.00,,BKN120,0.01,0.00,VWS V14.01,2013-11-09 04:09:00,
2013-11-08 23:14:00,40.9,30.8,29.91,SSE,151,0.0,0.0,67,0.00,,BKN120,0.01,0.00,VWS V14.01,2013-11-09 04:14:00,
2013-11-08 23:19:00,41.1,31.0,29.91,SSE,152,0.0,0.0,67,0.00,,BKN120,0.00,0.00,VWS V14.01,2013-11-09 04:19:00,
2013-11-08 23:24:00,41.2,31.1,29.91,SSE,153,0.0,0.0,67,0.00,,BKN120,0.00,0.00,VWS V14.01,2013-11-09 04:24:00,
2013-11-08 23:29:00,41.2,30.7,29.91,ESE,116,3.0,0.0,66,0.00,,BKN120,0.00,0.00,VWS V14.01,2013-11-09 04:29:00,
2013-11-08 23:30:00,40.8,31.4,29.92,SE,134,0.0,0.0,69,0.00,,OVC041,0.01,0.00,VWS V14.01,2013-11-09 04:30:00,
2013-11-08 23:34:00,41.3,30.8,29.89,ESE,123,0.0,0.0,66,0.00,,BKN120,0.00,0.00,VWS V14.01,2013-11-09 04:34:00,
2013-11-08 23:39:00,41.5,31.0,29.89,ESE,123,0.0,0.0,66,0.00,,BKN120,0.00,0.00,VWS V14.01,2013-11-09 04:39:00,
2013-11-08 23:44:00,41.5,31.0,29.89,SE,144,0.0,0.0,66,0.00,,BKN120,0.00,0.00,VWS V14.01,2013-11-09 04:44:00,
2013-11-08 23:49:00,41.6,31.1,29.89,SE,134,0.0,0.0,66,0.00,,BKN120,0.00,0.00,VWS V14.01,2013-11-09 04:49:00,
2013-11-08 23:54:00,41.6,31.1,29.89,SE,136,1.0,0.0,66,0.00,,BKN120,0.00,0.00,VWS V14.01,2013-11-09 04:54:00,
2013-11-08 23:59:00,41.6,30.7,29.89,SSE,148,0.0,0.0,65,0.00,,BKN120,0.00,0.00,VWS V14.01,2013-11-09 04:59:00,